Flag for Germany Weather past 2 weeks in Pirna, Saxony, Germany

Now
42 °F

Overcast.


Feels Like: 39 °F
Forecast: 42 / 49 °F
Wind: 6 mph from West

Location: Dresden-Klotzsche

Current Time: Dec 21, 2014 at 5:03:40 PM

Latest Report: Dec 21, 2014 at 3:00 PM


Visibility: 19 mi

Pressure: 30.28 "Hg

Humidity: 75%

Dew point: 35 °F

Location of PirnaLocation

Historic Weather in Pirna — Graph

°F

Pirna temperature yesterday

Maximum temperature yesterday: 42 °F (at 11:00 AM)
Minimum temperature yesterday: 36 °F (at 7:00 PM)
Average temperature yesterday: 41 °F

Past Weeks' High & Low Weather Summary

 TemperatureHumidityPressure
High54 °F (Dec 19, 2:00 AM)100% (Dec 7, 5:00 AM)30.45 "Hg (Dec 7, 5:00 AM)
Low25 °F (Dec 10, 2:00 AM)62% (Dec 15, 6:00 PM)29.56 "Hg (Dec 12, 11:00 PM)
Average40 °F85%29.99 "Hg
* Reported Dec 6 3:00 PM — Dec 21 3:00 PM, Pirna, Weather by CustomWeather, © 2014

Note: Actual official high and low records may vary slightly from our data, if they occured in-between our weather recording intervals... More about our weather records

Advertising

Pirna weather history for previous 24 hours

 ConditionsComfort  
Time TempWeatherWind HumidityBarometerVisibility
3:00 PM
Dec 21
42 °FOvercast.6 mph75%30.28 "Hg19 mi
2:00 PM42 °FOvercast.8 mph75%30.29 "Hg16 mi
1:00 PM42 °FOvercast.7 mph78%30.31 "Hg16 mi
12:00 PM41 °FOvercast.8 mph81%30.32 "Hg12 mi
11:00 AM40 °FLow clouds.9 mph83%30.32 "Hg9 mi
9:00 AM38 °FSprinkles. Low clouds.7 mph90%30.30 "Hg4 mi
8:00 AM39 °FOvercast.9 mph87%30.27 "Hg8 mi
7:00 AM38 °FSprinkles. Low clouds.12 mph89%30.24 "Hg9 mi
6:00 AM38 °FOvercast.9 mph89%30.21 "Hg11 mi
5:00 AM38 °FSprinkles. Low clouds.10 mph89%30.19 "Hg5 mi
3:00 AM38 °FOvercast.10 mph82%30.14 "Hg19 mi
2:00 AM38 °FOvercast.10 mph80%30.12 "Hg19 mi
1:00 AM39 °FOvercast.9 mph82%30.10 "Hg19 mi
12:00 AM38 °FOvercast.8 mph88%30.08 "Hg19 mi
11:00 PM
Dec 20
37 °FOvercast.8 mph90%30.05 "Hg16 mi
9:00 PM38 °FLight rain. Overcast.9 mph86%29.98 "Hg19 mi
8:00 PM36 °FLow clouds.9 mph92%29.96 "Hg16 mi
7:00 PM36 °FRain. Low clouds.8 mph95%29.95 "Hg4 mi
6:00 PM41 °FLight rain. Overcast.10 mph80%29.90 "Hg11 mi
5:00 PM41 °FLight rain. Overcast.10 mph74%29.90 "Hg16 mi
Weather by CustomWeather, © 2014

See weather overviewHow to use our weather pages